Weather History for KMWO - March, 2014

Change the Weather History Date:

Wednesday, March 5, 2014

  Actual Average (KDAY) Record (KDAY)
Temperature  
Mean Temperature 26 °F 36 °F  
Max Temperature 35 °F 45 °F 77 °F (1983)
Min Temperature 16 °F 28 °F -1 °F (1978)
Degree Days  
Heating Degree Days 40 29  
Month to date heating degree days 147  
Since 1 July heating degree days 4422  
Cooling Degree Days 0 0  
Month to date cooling degree days 0  
Year to date cooling degree days 0  
Moisture  
Dew Point 13 °F    
Average Humidity 59    
Maximum Humidity 79    
Minimum Humidity 32    
Precipitation  
Precipitation 0.00 in 0.10 in 3.28 in (1897)
Month to date precipitation 0.44  
Year to date precipitation 5.39  
Snow  
Snow 0.00 in 0.20 in 4.20 in (1962)
Month to date snowfall 0.8  
Since 1 July snowfall 20.1  
Snow Depth -    
Sea Level Pressure  
Sea Level Pressure 30.30 in    
Wind  
Wind Speed 5 mph (NE)    
Max Wind Speed 13 mph    
Max Gust Speed 18 mph    
Visibility 10 miles    
Events      
T = Trace of Precipitation, MM = Missing Value Source: NWS Daily Summary

Daily Weather History Graph

Daily Weather History Graph

Search for Another Location

Airport or City:

Trip Planner

Search our weather history database for the weather conditions in past years. The results will help you decide how hot, cold, wet, or windy it might be!

Date:

Astronomy

Mar. 05, 2014 Rise Set
Actual Time 7:04 AM EST 6:34 PM EST
Civil Twilight 6:37 AM EST 7:01 PM EST
Nautical Twilight 6:06 AM EST 7:32 PM EST
Astronomical Twilight 5:35 AM EST 8:03 PM EST
Moon 9:30 AM EST (3/5) 11:40 PM EST (3/5)
Length of Visible Light 12h 23m
Length of Day
11h 29m
Waxing Crescent, 23% of the Moon is Illuminated
Mar 5
Waxing Crescent
Mar 8
First Quarter
Mar 16
Full
Mar 23
Last Quarter
Mar 30
New

Hourly Weather History & Observations

Time (EST) Temp. Windchill Dew Point Humidity Pressure Visibility Wind Dir Wind Speed Gust Speed Precip Events Conditions
12:15 AM 19.0 °F - 11.3 °F 72% 30.24 in 10.0 mi Calm Calm - N/A   Clear
12:35 AM 19.0 °F - 11.3 °F 72% 30.24 in 10.0 mi Calm Calm - N/A   Clear
12:55 AM 19.0 °F - 11.8 °F 74% 30.22 in 10.0 mi Calm Calm - N/A   Clear
1:15 AM 18.7 °F - 11.8 °F 75% 30.21 in 10.0 mi Calm Calm - N/A   Clear
1:35 AM 17.6 °F - 11.3 °F 76% 30.22 in 10.0 mi Calm Calm - N/A   Clear
1:55 AM 18.1 °F - 11.5 °F 75% 30.22 in 10.0 mi Calm Calm - N/A   Clear
2:15 AM 17.6 °F - 11.3 °F 76% 30.23 in 10.0 mi Calm Calm - N/A   Clear
2:35 AM 17.6 °F - 11.7 °F 78% 30.21 in 10.0 mi Calm Calm - N/A   Clear
2:55 AM 17.6 °F - 12.2 °F 79% 30.22 in 10.0 mi Calm Calm - N/A   Clear
3:15 AM 17.6 °F - 12.0 °F 79% 30.22 in 10.0 mi Calm Calm - N/A   Clear
3:35 AM 16.9 °F - 11.5 °F 79% 30.22 in 10.0 mi Calm Calm - N/A   Clear
3:55 AM 17.6 °F 12.3 °F 11.8 °F 78% 30.22 in 10.0 mi NNE 3.5 mph - N/A   Clear
4:15 AM 17.6 °F 10.7 °F 11.3 °F 76% 30.23 in 10.0 mi North 4.6 mph - N/A   Clear
4:35 AM 18.5 °F 11.7 °F 11.8 °F 75% 30.23 in 10.0 mi North 4.6 mph - N/A   Clear
4:55 AM 18.9 °F 12.1 °F 11.7 °F 74% 30.24 in 10.0 mi NNE 4.6 mph - N/A   Clear
5:15 AM 19.0 °F 12.3 °F 11.8 °F 74% 30.24 in 10.0 mi NNE 4.6 mph - N/A   Clear
5:35 AM 19.2 °F 14.1 °F 11.3 °F 71% 30.26 in 10.0 mi NNE 3.5 mph - N/A   Clear
5:55 AM 19.0 °F - 11.7 °F 73% 30.26 in 10.0 mi Calm Calm - N/A   Clear
6:15 AM 19.0 °F 13.9 °F 11.3 °F 72% 30.27 in 10.0 mi NNE 3.5 mph - N/A   Clear
6:35 AM 18.1 °F 11.3 °F 11.1 °F 74% 30.28 in 10.0 mi North 4.6 mph - N/A   Clear
6:55 AM 17.6 °F 10.7 °F 10.4 °F 73% 30.28 in 10.0 mi North 4.6 mph - N/A   Clear
7:15 AM 17.6 °F - 10.4 °F 73% 30.29 in 10.0 mi Calm Calm - N/A   Clear
7:35 AM 18.9 °F 9.8 °F 11.3 °F 72% 30.29 in 10.0 mi NNE 6.9 mph - N/A   Clear
7:55 AM 20.3 °F 11.5 °F 11.5 °F 69% 30.30 in 10.0 mi NNE 6.9 mph - N/A   Clear
8:15 AM 21.0 °F 12.4 °F 11.3 °F 66% 30.31 in 10.0 mi NNE 6.9 mph - N/A   Clear
8:35 AM 22.8 °F 13.6 °F 12.4 °F 64% 30.32 in 10.0 mi NNE 8.1 mph - N/A   Clear
8:55 AM 22.8 °F 12.9 °F 12.0 °F 63% 30.32 in 10.0 mi NNE 9.2 mph - N/A   Clear
9:15 AM 25.3 °F 17.6 °F 14.2 °F 63% 30.32 in 10.0 mi NE 6.9 mph - N/A   Clear
9:35 AM 27.9 °F 19.8 °F 14.4 °F 57% 30.32 in 10.0 mi NE 8.1 mph - N/A   Clear
9:55 AM 27.9 °F 19.1 °F 11.7 °F 51% 30.32 in 10.0 mi NE 9.2 mph - N/A   Clear
10:15 AM 27.9 °F 19.1 °F 9.1 °F 45% 30.32 in 10.0 mi ENE 9.2 mph - N/A   Clear
10:35 AM 28.2 °F 20.2 °F 7.9 °F 42% 30.32 in 10.0 mi ENE 8.1 mph - N/A   Clear
10:55 AM 30.0 °F 24.1 °F 8.6 °F 41% 30.33 in 10.0 mi NNE 5.8 mph - N/A   Clear
11:15 AM 32.5 °F 29.3 °F 11.3 °F 41% 30.34 in 10.0 mi NNE 3.5 mph - N/A   Clear
11:35 AM 32.5 °F 27.1 °F 11.5 °F 42% 30.34 in 10.0 mi NE 5.8 mph - N/A   Clear
11:55 AM 32.5 °F 27.1 °F 10.9 °F 41% 30.34 in 10.0 mi NNE 5.8 mph - N/A   Scattered Clouds
12:15 PM 32.5 °F 24.8 °F 10.9 °F 41% 30.33 in 10.0 mi NE 9.2 mph - N/A   Clear
12:35 PM 32.5 °F 24.8 °F 10.9 °F 41% 30.33 in 10.0 mi NNE 9.2 mph - N/A   Clear
12:55 PM 33.1 °F 26.1 °F 11.5 °F 41% 30.32 in 10.0 mi NE 8.1 mph - N/A   Clear
1:15 PM 35.1 °F 29.3 °F 13.1 °F 40% 30.31 in 10.0 mi ENE 6.9 mph - N/A   Clear
1:35 PM 35.1 °F 29.3 °F 13.1 °F 40% 30.30 in 10.0 mi NE 6.9 mph - N/A   Clear
1:55 PM 35.1 °F 26.4 °F 12.4 °F 39% 30.30 in 10.0 mi ENE 12.7 mph - N/A   Clear
2:15 PM 35.1 °F 27.9 °F 8.2 °F 33% 30.29 in 10.0 mi NE 9.2 mph - N/A   Scattered Clouds
2:35 PM 35.1 °F 27.9 °F 9.9 °F 35% 30.29 in 10.0 mi NNE 9.2 mph - N/A   Scattered Clouds
2:55 PM 35.1 °F 28.6 °F 10.9 °F 37% 30.28 in 10.0 mi NE 8.1 mph - N/A   Scattered Clouds
3:15 PM 35.1 °F 27.9 °F 7.5 °F 32% 30.29 in 10.0 mi NNE 9.2 mph - N/A   Scattered Clouds
3:35 PM 35.1 °F 27.9 °F 10.4 °F 36% 30.30 in 10.0 mi NNE 9.2 mph - N/A   Scattered Clouds
3:55 PM 35.1 °F 26.9 °F 10.2 °F 36% 30.30 in 10.0 mi NNE 11.5 mph - N/A   Scattered Clouds
4:15 PM 35.1 °F 26.9 °F 11.7 °F 38% 30.30 in 10.0 mi NE 11.5 mph - N/A   Scattered Clouds
4:35 PM 35.1 °F 26.9 °F 11.1 °F 37% 30.30 in 10.0 mi NNE 11.5 mph - N/A   Clear
4:55 PM 32.7 °F 23.4 °F 10.9 °F 40% 30.31 in 10.0 mi NNE 12.7 mph - N/A   Clear
5:15 PM 32.5 °F 24.2 °F 10.4 °F 40% 30.32 in 10.0 mi NNE 10.4 mph - N/A   Clear
5:35 PM 32.5 °F 23.7 °F 12.6 °F 44% 30.32 in 10.0 mi NE 11.5 mph - N/A   Scattered Clouds
5:55 PM 32.5 °F 23.7 °F 15.8 °F 50% 30.33 in 10.0 mi NE 11.5 mph - N/A   Mostly Cloudy
6:15 PM 32.5 °F 23.7 °F 17.6 °F 54% 30.34 in 10.0 mi NE 11.5 mph 18.4 mph N/A   Mostly Cloudy
6:35 PM 30.2 °F 21.9 °F 17.4 °F 59% 30.35 in 10.0 mi NE 9.2 mph - N/A   Scattered Clouds
6:55 PM 29.1 °F 18.9 °F 17.4 °F 62% 30.35 in 10.0 mi NNE 12.7 mph 18.4 mph N/A   Clear
7:15 PM 27.9 °F 17.8 °F 16.5 °F 62% 30.36 in 10.0 mi NE 11.5 mph - N/A   Clear
7:35 PM 27.9 °F 17.3 °F 17.4 °F 65% 30.36 in 10.0 mi NE 12.7 mph 16.1 mph N/A   Clear
7:55 PM 27.9 °F 17.3 °F 17.2 °F 64% 30.36 in 10.0 mi NE 12.7 mph - N/A   Clear
8:15 PM 27.9 °F 17.8 °F 17.8 °F 66% 30.37 in 10.0 mi NNE 11.5 mph - N/A   Clear
8:35 PM 27.9 °F 17.8 °F 18.1 °F 67% 30.37 in 10.0 mi ENE 11.5 mph - N/A   Scattered Clouds
8:55 PM 27.9 °F 17.8 °F 18.3 °F 67% 30.37 in 10.0 mi NE 11.5 mph - N/A   Mostly Cloudy
9:15 PM 27.9 °F 19.1 °F 17.8 °F 66% 30.37 in 10.0 mi NE 9.2 mph 18.4 mph N/A   Scattered Clouds
9:35 PM 27.9 °F 17.3 °F 17.8 °F 66% 30.37 in 10.0 mi NE 12.7 mph 17.3 mph N/A   Scattered Clouds
9:55 PM 27.9 °F 19.1 °F 17.1 °F 64% 30.38 in 10.0 mi NE 9.2 mph - N/A   Clear
10:15 PM 27.9 °F 18.4 °F 17.1 °F 64% 30.38 in 10.0 mi NE 10.4 mph 16.1 mph N/A   Scattered Clouds
10:35 PM 25.5 °F 14.9 °F 13.8 °F 61% 30.38 in 10.0 mi NE 11.5 mph 16.1 mph N/A   Scattered Clouds
10:55 PM 25.3 °F 15.3 °F 13.8 °F 62% 30.37 in 10.0 mi NE 10.4 mph - N/A   Clear
11:15 PM 25.3 °F 15.3 °F 13.3 °F 60% 30.37 in 10.0 mi NE 10.4 mph - N/A   Clear
11:35 PM 25.3 °F 14.7 °F 13.5 °F 61% 30.37 in 10.0 mi ENE 11.5 mph - N/A   Clear
11:55 PM 25.3 °F 16.0 °F 13.5 °F 61% 30.38 in 10.0 mi NE 9.2 mph - N/A   Clear